DateTimeUTC,F1_A11,F1_S11,BsB_S11,BsG_S11,BsR_S11,BbsB_S11,BbsG_S11,BbsR_S11,BaB_A11,BaG_A11,BaR_A11,Tu_S11,T_S11,Uu_S11,U_S11,P_S11,T1_A11
2021-08-21T12:00:00Z,00000200,20000000,,,,,,,-000.13,0000.24,0000.33,19.2,25.9,08.9,05.9,0677.3,31.1
2021-08-21T12:01:00Z,00000200,20000000,,,,,,,0000.28,0000.09,0000.08,19.2,25.9,08.9,05.9,0677.2,31.1
2021-08-21T12:02:00Z,00000200,20000000,,,,,,,0000.27,-000.10,0000.29,19.2,25.9,08.9,05.9,0677.2,31.0
2021-08-21T12:03:00Z,00000200,60000000,,,,,,,0000.27,0000.08,0000.22,19.2,25.9,08.9,05.9,0677.2,31.1
2021-08-21T12:04:00Z,00000200,40000000,0001.58,0001.88,0001.00,0000.78,0000.33,0000.12,0000.45,0000.95,0000.22,19.4,25.8,08.9,06.0,0678.2,31.0
2021-08-21T12:05:00Z,00000200,00000000,0001.72,0001.44,0001.12,0000.76,0000.07,0000.06,0000.81,0000.55,0000.39,19.4,25.7,08.9,06.1,0678.2,31.0
2021-08-21T12:06:00Z,00000200,00000000,0001.92,0001.61,0000.86,-000.13,0000.23,0000.31,0000.53,0000.41,0000.28,19.4,25.7,09.0,06.1,0678.2,31.0
2021-08-21T12:07:00Z,00000200,00000000,0001.86,0001.44,0000.83,0000.22,-000.05,0000.11,0000.28,0000.44,0000.56,19.4,25.7,08.9,06.1,0678.2,31.1
2021-08-21T12:08:00Z,00000200,00000000,0001.67,0001.17,0001.02,0000.27,0000.10,0000.16,0000.50,0000.64,0000.35,19.5,25.7,08.9,06.1,0678.2,31.0
2021-08-21T12:09:00Z,00000200,00000000,0001.46,0001.77,0001.10,0000.60,0000.14,-000.10,0000.57,0000.50,0000.48,19.5,25.7,09.0,06.2,0678.2,31.0
2021-08-21T12:10:00Z,00000200,00000000,0001.68,0001.36,0001.06,0000.77,0000.20,0000.30,0000.77,0000.29,0000.50,19.5,25.7,08.9,06.1,0678.2,31.0
2021-08-21T12:11:00Z,00000200,00000000,0002.44,0001.32,0001.21,0000.46,0000.12,0000.11,0000.46,0000.69,0000.09,19.5,25.7,09.1,06.2,0678.2,31.1
2021-08-21T12:12:00Z,00000200,00000000,0001.57,0001.62,0001.37,0000.47,0000.04,0000.37,0000.71,0000.51,0000.46,19.5,25.7,09.1,06.2,0678.2,31.1
2021-08-21T12:13:00Z,00000200,00000000,0001.30,0001.61,0001.04,0000.33,-000.11,0000.23,0000.55,0000.28,0000.47,19.5,25.7,09.1,06.2,0678.2,31.1
2021-08-21T12:14:00Z,00000200,00000000,0001.09,0001.56,0001.01,0000.71,0000.07,-000.13,0000.32,0000.78,0000.37,19.5,25.7,09.1,06.2,0678.2,31.1
2021-08-21T12:15:00Z,00000200,00000000,0001.67,0001.58,0001.08,0000.44,0000.03,0000.02,0000.77,0000.48,0000.05,19.5,25.7,09.2,06.3,0678.2,31.1
2021-08-21T12:16:00Z,00000200,00000000,0002.05,0001.60,0001.19,-000.13,0000.34,0000.11,0000.55,0000.26,0000.84,19.5,25.7,09.2,06.3,0678.2,31.1
2021-08-21T12:17:00Z,00000200,00000000,0001.37,0001.73,0001.07,-000.24,-000.05,0000.29,0000.39,0000.23,0000.28,19.5,25.7,09.1,06.2,0678.2,31.1
2021-08-21T12:18:00Z,00000200,00000000,0001.77,0001.72,0001.26,0000.44,0000.12,0000.16,0000.72,0000.84,0000.39,19.5,25.7,09.1,06.2,0678.2,31.0
2021-08-21T12:19:00Z,00000200,00000000,0001.29,0001.52,0001.08,0000.53,0000.01,0000.17,0000.57,0001.09,0000.37,19.5,25.7,09.3,06.3,0678.2,31.1
2021-08-21T12:20:00Z,00000200,00000000,0001.80,0001.61,0001.19,0000.39,0000.24,-000.10,0000.57,0000.09,0000.49,19.5,25.7,09.2,06.2,0678.2,31.1
2021-08-21T12:21:00Z,00000200,00000000,0001.72,0001.66,0000.83,0001.04,0000.11,0000.35,0000.44,0000.47,0000.31,19.5,25.7,09.3,06.4,0678.2,31.1
2021-08-21T12:22:00Z,00000200,00000000,0001.85,0001.74,0001.51,0000.31,0000.09,0000.02,0000.82,0000.58,0000.70,19.5,25.8,09.3,06.4,0678.2,31.1
2021-08-21T12:23:00Z,00000200,00000000,0001.90,0001.65,0001.02,0000.53,0000.20,0000.27,0000.23,0000.43,0000.09,19.5,25.8,09.4,06.4,0678.2,31.1
2021-08-21T12:24:00Z,00000200,00000000,0002.39,0001.48,0000.81,0000.32,0000.03,0000.17,0000.46,0000.54,0000.56,19.5,25.8,09.2,06.3,0678.2,31.0
2021-08-21T12:25:00Z,00000200,00000000,0001.85,0001.61,0001.32,0000.28,0000.07,-000.25,0001.03,0000.47,0000.50,19.5,25.8,09.3,06.4,0678.2,31.1
2021-08-21T12:26:00Z,00000200,00000000,0002.20,0001.66,0001.14,0000.35,0000.14,0000.06,0000.28,0000.56,0000.26,19.5,25.7,09.3,06.3,0678.2,31.0
2021-08-21T12:27:00Z,00000200,00000000,0001.90,0001.68,0001.22,0000.51,0000.29,0000.54,0000.58,0000.47,0000.62,19.5,25.8,09.3,06.3,0678.2,31.1
2021-08-21T12:28:00Z,00000200,00000000,0002.14,0001.70,0001.34,0000.61,0000.18,-000.19,0000.66,0000.79,0000.06,19.5,25.8,09.3,06.4,0678.2,31.1
2021-08-21T12:29:00Z,00000200,00000000,0001.70,0001.63,0000.79,0000.34,0000.13,0000.21,0000.54,0000.33,0000.70,19.5,25.8,09.3,06.3,0678.2,31.1
2021-08-21T12:30:00Z,00000200,00000000,0001.75,0001.71,0001.22,0000.37,0000.33,0000.20,0000.61,0000.55,0000.23,19.5,25.8,09.3,06.3,0678.2,31.1
2021-08-21T12:31:00Z,00000200,00000000,0002.18,0001.76,0000.96,0000.64,0000.04,0000.15,0000.56,0000.57,0000.59,19.5,25.8,09.4,06.4,0678.2,31.1
2021-08-21T12:32:00Z,00000200,00000000,0001.45,0001.56,0000.63,0000.39,0000.11,-000.36,0000.21,0000.56,-000.03,19.5,25.8,09.3,06.4,0678.3,31.1
2021-08-21T12:33:00Z,00000200,00000000,0001.67,0001.57,0001.10,0000.52,-000.09,-000.33,0000.30,0000.21,0000.65,19.5,25.8,09.4,06.4,0678.3,31.1
2021-08-21T12:34:00Z,00000200,00000000,0001.59,0001.59,0001.19,0000.08,0000.34,0000.12,0000.95,0000.75,0000.39,19.5,25.8,09.4,06.4,0678.2,31.1
2021-08-21T12:35:00Z,00000200,00000000,0001.71,0001.68,0000.97,0000.61,0000.29,0000.09,0000.50,0000.49,0000.38,19.5,25.8,09.4,06.4,0678.2,31.0
2021-08-21T12:36:00Z,00000200,00000000,0001.93,0001.67,0001.38,0000.17,0000.12,0000.14,0000.52,0000.51,0000.60,19.5,25.8,09.5,06.5,0678.2,31.1
2021-08-21T12:37:00Z,00000200,00000000,0002.22,0001.69,0001.18,0000.46,0000.02,0000.26,0000.83,0000.26,0000.01,19.5,25.8,09.4,06.4,0678.2,31.1
2021-08-21T12:38:00Z,00000200,00000000,0001.36,0001.28,0001.08,0000.09,-000.18,-000.03,0000.59,0000.80,0000.87,19.6,25.8,09.6,06.6,0678.2,31.1
2021-08-21T12:39:00Z,00000200,00000000,0001.49,0001.33,0001.18,0000.71,0000.24,-000.04,0000.32,0000.50,0000.48,19.6,25.8,09.6,06.6,0678.2,31.1
2021-08-21T12:40:00Z,00000200,00000000,0001.23,0001.61,0001.01,0000.66,0000.15,0000.04,0000.56,0000.54,0000.30,19.6,25.8,09.6,06.6,0678.2,31.1
2021-08-21T12:41:00Z,00000200,00000000,0001.74,0001.65,0001.12,0000.77,-000.07,0000.03,0000.57,0000.39,0000.49,19.6,25.8,09.6,06.6,0678.2,31.1
2021-08-21T12:42:00Z,00000200,00000000,0001.73,0001.62,0001.39,0000.39,-000.06,0000.09,0000.67,0000.40,0000.60,19.6,25.8,09.6,06.6,0678.2,31.1
2021-08-21T12:43:00Z,00000200,00000000,0001.04,0001.80,0000.81,0000.21,0000.01,-000.06,0000.65,0000.58,0000.14,19.6,25.8,09.7,06.7,0678.2,31.1
2021-08-21T12:44:00Z,00000200,00000000,0001.20,0001.64,0001.09,0000.03,0000.16,0000.14,0000.64,0000.78,0000.38,19.6,25.8,09.6,06.6,0678.2,31.1
2021-08-21T12:45:00Z,00000200,00000000,0002.44,0001.34,0001.05,0000.49,-000.05,0000.19,0000.16,0000.23,0000.30,19.6,25.8,09.7,06.6,0678.2,31.1
2021-08-21T12:46:00Z,00000200,00000000,0001.58,0001.06,0001.33,0000.17,0000.10,0000.35,0000.45,0000.53,0000.36,19.6,25.8,09.6,06.6,0678.2,31.1
2021-08-21T12:47:00Z,00000200,00000000,0001.82,0001.52,0001.17,0000.98,0000.14,0000.19,0000.65,0000.59,0000.62,19.6,25.8,09.8,06.7,0678.2,31.1
2021-08-21T12:48:00Z,00000200,00000000,0001.59,0001.53,0000.92,0000.43,-000.10,0000.21,0000.53,0000.10,0000.07,19.6,25.8,09.9,06.8,0678.2,31.1
2021-08-21T12:49:00Z,00000200,00000000,0001.70,0001.27,0001.25,0001.02,0000.28,-000.02,0000.71,0000.93,0000.27,19.6,25.8,09.9,06.8,0678.2,31.1
2021-08-21T12:50:00Z,00000200,00000000,0001.85,0001.80,0001.40,0000.14,-000.11,0000.27,0000.27,0000.46,0000.67,19.6,25.8,09.8,06.7,0678.2,31.1
2021-08-21T12:51:00Z,00000200,00000000,0001.18,0001.81,0000.70,0000.67,0000.02,-000.01,0000.81,0000.39,0000.42,19.6,25.8,09.9,06.8,0678.2,31.1
2021-08-21T12:52:00Z,00000200,00000000,0001.89,0001.61,0000.64,0000.74,0000.38,0000.01,0000.53,0000.79,0000.74,19.6,25.8,10.0,06.8,0678.2,31.1
2021-08-21T12:53:00Z,00000200,00000000,0001.86,0001.36,0001.03,0000.31,-000.03,-000.09,0000.46,0000.11,-000.41,19.6,25.8,09.9,06.8,0678.2,31.1
2021-08-21T12:54:00Z,00000200,00000000,0001.99,0001.82,0001.00,0000.61,-000.04,-000.05,0000.57,0000.85,0001.03,19.6,25.8,10.0,06.9,0678.2,31.1
2021-08-21T12:55:00Z,00000200,00000000,0001.72,0001.51,0000.82,0000.11,-000.22,0000.01,0000.51,0000.08,0000.20,19.6,25.8,09.9,06.8,0678.2,31.1
2021-08-21T12:56:00Z,00000200,00000000,0001.50,0001.40,0001.08,0000.04,0000.11,0000.02,0000.49,0000.67,0000.60,19.6,25.8,10.0,06.9,0678.2,31.1
2021-08-21T12:57:00Z,00000200,40000000,,,,,,,0000.10,0000.03,-000.48,19.7,25.8,09.7,06.7,0678.2,31.1
2021-08-21T12:58:00Z,00000200,60000000,,,,,,,-000.00,0000.11,0000.47,19.4,25.9,10.0,06.7,0677.2,31.1
2021-08-21T12:59:00Z,00000200,20000000,,,,,,,-000.04,0000.17,0000.17,19.4,26.0,10.0,06.7,0677.2,31.1
